[[{"header":{"parameterUnit":"m.s-1","parameterCategory":1,"la1":30.2991,"la2":30.254,"lo1":-89.0895,"lo2":-89.0444,"dy":0.0017,"dx":0.0017,"nx":28,"ny":28,"refTime":"2025-03-10T21:00:00:Z","depth":0,"parameterNumber":2,"parameterNumberName":"U-component_of_WINDS"},"data":[0,0,0,0,0,0,0,0,0,0,0,0,0,0,0,0,0,0,0,0,0,0,0,0,0,0,0,0,0,0,0,0,0,0,0,0,0,0,0,0,0,0,0,0,0,0,0,0,0,0,0,0,0,0,0,0,0,0,1.3001,1.3002,0,1.307,1.3071,1.3072,1.3097,1.3097,1.3097,1.3096,1.3171,1.3173,1.3175,0,0,0,0,0,0,0,0,0,0,0,0,0,1.2895,1.2897,1.3001,1.3002,1.3003,1.307,1.3071,1.3072,1.3097,1.3097,1.3097,1.3096,1.317,1.3172,1.3175,0,0,0,0,0,0,0,0,0,0,0,0,0,1.295,1.2898,1.3001,1.3024,1.3026,1.307,1.3071,1.3072,1.3097,1.3097,1.3097,1.3096,1.3169,1.3172,1.3175,1.3203,0,0,1.3185,1.3187,0,0,0,0,0,0,0,0,1.2947,1.2954,1.3019,1.3022,1.3025,1.3075,1.3061,1.3116,1.3097,1.307,1.3096,1.3096,1.3139,1.3145,1.3159,1.3206,1.3209,1.3186,1.3188,1.3189,1.319,0,0,0,0,0,0,0,1.2943,1.2951,1.3029,1.302,1.3024,1.3031,1.3039,1.3071,1.3106,1.3073,1.3075,1.3082,1.3141,1.3155,1.3161,1.321,1.3186,1.3189,1.3191,1.3192,1.3284,1.3284,0,0,0,0,0,0,1.2935,1.2948,1.3026,1.3031,1.2984,1.3033,1.3042,1.3059,1.3106,1.3112,1.3083,1.3083,1.315,1.3157,1.3163,1.3198,1.3189,1.3192,1.3194,1.3283,1.3284,1.3284,0,0,0,0,0,0,1.2933,1.2942,1.3024,1.299,1.3001,1.3036,1.3055,1.3061,1.3075,1.3113,1.312,1.3091,1.315,1.3159,1.3192,1.3201,1.3194,1.3197,1.3283,1.3284,1.3284,1.3268,0,0,0,0,0,0,1.293,1.2941,1.2951,1.299,1.3002,1.305,1.3055,1.3062,1.308,1.3082,1.3123,1.3129,1.315,1.3187,1.3196,1.3206,1.3199,1.3282,1.3283,1.3284,1.3268,1.3268,1.3268,0,0,0,0,0,1.2926,1.2944,1.2951,1.2961,1.3015,1.3051,1.3058,1.3081,1.3081,1.3092,1.3116,1.3128,1.3199,1.3191,1.32,1.3211,1.3282,1.3283,1.3284,1.3268,1.3268,1.3268,0,0,0,0,0,0,1.2907,1.295,1.2958,1.2989,1.3016,1.3055,1.3069,1.3081,1.3109,1.3109,1.3138,1.3147,1.3178,1.3198,1.3188,1.324,1.3241,1.3244,1.3226,1.3226,1.3226,1.3221,1.3202,0,0,0,0,0,1.2906,1.293,1.2967,1.2991,1.3004,1.3034,1.3051,1.3066,1.3095,1.3107,1.3134,1.3163,1.3192,1.321,1.3239,1.3271,1.3281,1.3283,1.3284,1.3283,1.3286,1.3305,1.3307,1.3288,1.3288,1.3288,0,0,1.2905,1.2932,1.2946,1.2988,1.3011,1.3036,1.3044,1.307,1.309,1.3112,1.3145,1.3165,1.32,1.3233,1.3249,1.325,1.3293,1.3285,1.3284,1.3287,1.3306,1.3308,1.3309,1.3289,1.3289,1.3288,0,0,1.2917,1.2939,1.2962,1.2984,1.3017,1.3037,1.3042,1.308,1.3094,1.3127,1.3144,1.3168,1.3217,1.3241,1.3259,1.3279,1.3291,1.3288,1.3289,1.3307,1.3308,1.331,1.3317,1.3319,1.329,1.329,1.329,0,1.2912,1.295,1.2972,1.2998,1.3016,1.3036,1.3059,1.308,1.3122,1.3135,1.3135,1.3197,1.3221,1.326,1.3265,1.3279,1.3287,1.3283,1.3306,1.3308,1.3309,1.3317,1.3319,1.3289,1.3289,1.3289,1.3289,0,1.2942,1.2968,1.2983,1.3021,1.3041,1.3065,1.3093,1.3111,1.3124,1.3144,1.3178,1.3208,1.3243,1.3253,1.3267,1.3294,1.3294,1.33,1.3302,1.331,1.3317,1.332,1.3288,1.3288,1.3289,1.3289,0,0,1.2944,1.2994,1.2999,1.3016,1.3055,1.3076,1.3101,1.3134,1.3149,1.3177,1.32,1.3241,1.3246,1.3267,1.3284,1.3299,1.3313,1.3304,1.3305,1.3305,1.3346,1.3341,1.3344,1.3321,1.3322,1.3323,1.3343,0,1.2961,1.3006,1.3027,1.3064,1.3088,1.3107,1.3129,1.3156,1.3175,1.32,1.3222,1.325,1.3255,1.3268,1.3284,1.3308,1.3322,1.3307,1.3344,1.3345,1.3335,1.3348,1.3343,1.3361,1.3346,1.3346,1.3347,0,1.2986,1.3013,1.3052,1.3087,1.3098,1.3117,1.3149,1.3172,1.3203,1.3216,1.3238,1.3254,1.3283,1.3282,1.3322,1.3312,1.3328,1.3342,1.3343,1.3348,1.3347,1.3353,1.3367,1.337,1.3352,1.3351,1.3351,0,1.2984,1.303,1.3059,1.3073,1.3115,1.3128,1.3146,1.3176,1.3195,1.3223,1.3235,1.3267,1.3284,1.3309,1.3333,1.333,1.3371,1.3372,1.3384,1.3383,1.3392,1.3391,1.3409,1.3402,1.3402,1.3402,1.3401,0,1.3001,1.3024,1.3058,1.3076,1.3103,1.3127,1.3153,1.3173,1.3199,1.3222,1.324,1.3261,1.3292,1.3317,1.3337,1.3367,1.3375,1.3387,1.3392,1.3386,1.3384,1.3397,1.3397,1.3402,1.3402,1.3402,1.3402,0,1.3003,1.3027,1.306,1.3096,1.3106,1.3124,1.3155,1.3174,1.3194,1.3222,1.3231,1.3262,1.3293,1.3319,1.336,1.3373,1.3405,1.3411,1.3394,1.3397,1.3407,1.3405,1.3434,1.3439,1.3428,1.3428,1.3428,0,1.3013,1.303,1.3068,1.3084,1.3102,1.3127,1.3146,1.317,1.3189,1.3225,1.3239,1.3271,1.3298,1.3346,1.3374,1.3405,1.3412,1.342,1.3417,1.341,1.3412,1.3411,1.3413,1.342,1.342,1.342,1.342,0,1.3027,1.3037,1.3063,1.3092,1.3113,1.3138,1.3164,1.3176,1.3206,1.3226,1.3257,1.3277,1.3318,1.335,1.3384,1.3404,1.3417,1.342,1.3425,1.3419,1.3408,1.3414,1.3395,1.342,1.342,1.342,1.342,1.342,1.3033,1.305,1.3079,1.3107,1.3128,1.3151,1.317,1.3192,1.3218,1.3252,1.3265,1.3297,1.3328,1.3375,1.3394,1.342,1.3422,1.3428,1.343,1.3431,1.343,1.3404,1.3427,1.3427,1.3427,1.3427,1.3427,0,1.3048,1.3067,1.3093,1.3127,1.3149,1.3158,1.3187,1.3205,1.3232,1.3258,1.3284,1.3319,1.335,1.3379,1.3412,1.3427,1.3433,1.3434,1.3434,1.3438,1.3427,1.342,1.3428,1.3428,1.3428,1.3428,1.3428,1.3428,1.3059,1.3087,1.3102,1.3141,1.3161,1.3191,1.3207,1.3229,1.325,1.3288,1.3313,1.3332,1.336,1.3394,1.3423,1.3431,1.3442,1.3441,1.3451,1.3439,1.3439,1.3439,1.3432,1.3443,1.3443,1.346,1.346,1.346]},{"header":{"parameterUnit":"m.s-1","parameterCategory":1,"la1":30.2991,"la2":30.254,"lo1":-89.0895,"lo2":-89.0444,"dy":0.0017,"dx":0.0017,"nx":28,"ny":28,"refTime":"2025-03-10T21:00:00:Z","depth":0,"parameterNumber":3,"parameterNumberName":"V-component_of_WINDS"},"data":[0,0,0,0,0,0,0,0,0,0,0,0,0,0,0,0,0,0,0,0,0,0,0,0,0,0,0,0,0,0,0,0,0,0,0,0,0,0,0,0,0,0,0,0,0,0,0,0,0,0,0,0,0,0,0,0,0,0,1.7051,1.705,0,1.703,1.7029,1.7029,1.7034,1.7035,1.7035,1.7035,1.7011,1.701,1.7009,0,0,0,0,0,0,0,0,0,0,0,0,0,1.7092,1.7091,1.7051,1.705,1.705,1.703,1.7029,1.7029,1.7034,1.7035,1.7035,1.7036,1.7011,1.701,1.7009,0,0,0,0,0,0,0,0,0,0,0,0,0,1.7073,1.7091,1.7051,1.705,1.705,1.703,1.7029,1.7029,1.7034,1.7035,1.7035,1.7036,1.7012,1.701,1.7009,1.6987,0,0,1.7004,1.7003,0,0,0,0,0,0,0,0,1.7074,1.7071,1.7051,1.705,1.705,1.7035,1.7035,1.7015,1.7034,1.704,1.7035,1.7036,1.7018,1.7016,1.7011,1.6986,1.6984,1.7004,1.7003,1.7002,1.7002,0,0,0,0,0,0,0,1.7075,1.7072,1.7042,1.705,1.705,1.705,1.7048,1.7031,1.7026,1.704,1.704,1.7037,1.7018,1.7012,1.701,1.6984,1.7004,1.7003,1.7002,1.7001,1.6937,1.6937,0,0,0,0,0,0,1.7077,1.7073,1.7043,1.7042,1.7064,1.7049,1.7047,1.7039,1.7026,1.7025,1.7037,1.7038,1.7015,1.7012,1.701,1.6981,1.7002,1.7001,1.7,1.6938,1.6937,1.6936,0,0,0,0,0,0,1.7078,1.7074,1.7044,1.7057,1.7054,1.7047,1.7039,1.7039,1.7033,1.7024,1.7023,1.7032,1.7015,1.7012,1.6992,1.698,1.7,1.6999,1.6939,1.6938,1.6937,1.6925,0,0,0,0,0,0,1.7079,1.7075,1.7067,1.7057,1.7053,1.7028,1.7039,1.7038,1.703,1.7031,1.7019,1.7018,1.7015,1.6994,1.699,1.6979,1.6997,1.694,1.6938,1.6937,1.6927,1.6924,1.6922,0,0,0,0,0,1.7081,1.7065,1.7067,1.7063,1.7043,1.7027,1.7024,1.7023,1.7029,1.7021,1.7015,1.7018,1.6983,1.6992,1.6988,1.6976,1.6941,1.6939,1.6937,1.6928,1.6925,1.6922,0,0,0,0,0,0,1.7072,1.7063,1.7066,1.7046,1.7037,1.7028,1.7017,1.7019,1.7008,1.7009,1.7007,1.7004,1.6983,1.6978,1.6989,1.6952,1.6962,1.696,1.6957,1.6954,1.6951,1.6952,1.6996,0,0,0,0,0,1.7069,1.7057,1.7049,1.7033,1.7028,1.7024,1.7016,1.7016,1.7006,1.7002,1.6995,1.6985,1.6971,1.6962,1.695,1.6926,1.6923,1.6916,1.6913,1.6911,1.6908,1.6893,1.689,1.6931,1.6931,1.6931,0,0,1.706,1.7053,1.7046,1.7031,1.7024,1.7011,1.702,1.7006,1.6996,1.7,1.6981,1.6975,1.6963,1.6941,1.6931,1.6936,1.6896,1.6909,1.6907,1.6906,1.6891,1.6887,1.6884,1.693,1.693,1.693,0,0,1.7037,1.7032,1.7017,1.701,1.7,1.6996,1.6993,1.6983,1.6979,1.696,1.6962,1.695,1.6927,1.6918,1.691,1.6883,1.6885,1.6879,1.6865,1.6851,1.6848,1.6845,1.6833,1.6829,1.6877,1.6877,1.6877,0,1.7027,1.7009,1.7009,1.6994,1.6986,1.699,1.6974,1.6967,1.6952,1.6946,1.6952,1.6922,1.6915,1.689,1.6883,1.6878,1.6872,1.688,1.6848,1.6845,1.6843,1.6831,1.6827,1.6876,1.6876,1.6876,1.6876,0,1.6996,1.6983,1.6972,1.6958,1.695,1.6934,1.693,1.6921,1.6922,1.6917,1.6897,1.6888,1.6872,1.6867,1.6867,1.6841,1.6844,1.6849,1.6859,1.6838,1.6827,1.6823,1.6875,1.6875,1.6875,1.6875,0,0,1.6967,1.6954,1.6949,1.6943,1.6931,1.692,1.6905,1.689,1.6882,1.6872,1.6857,1.6837,1.6841,1.6833,1.6831,1.6819,1.6796,1.6825,1.6825,1.6818,1.6765,1.6759,1.6755,1.6797,1.6797,1.6796,1.6765,0,1.6942,1.6915,1.6914,1.6889,1.6875,1.6878,1.6864,1.6855,1.6851,1.6838,1.6832,1.6817,1.6825,1.682,1.6808,1.6801,1.6784,1.6804,1.6782,1.6781,1.6783,1.675,1.6744,1.6716,1.6761,1.676,1.676,0,1.6909,1.6898,1.6872,1.6861,1.6855,1.6843,1.6829,1.6817,1.6806,1.6803,1.6793,1.6794,1.6776,1.6787,1.6761,1.6774,1.6765,1.676,1.6759,1.6755,1.6768,1.6743,1.6707,1.6701,1.6754,1.6754,1.6755,0,1.6888,1.6867,1.6848,1.6842,1.683,1.6821,1.6815,1.6805,1.6795,1.6783,1.6777,1.6762,1.6753,1.6741,1.6737,1.6746,1.671,1.6722,1.6706,1.6706,1.6697,1.6697,1.6656,1.6694,1.6694,1.6694,1.6694,0,1.6859,1.6842,1.6838,1.6826,1.6807,1.6806,1.6786,1.6781,1.6771,1.6757,1.6759,1.6745,1.6742,1.6727,1.6723,1.6701,1.6698,1.6693,1.6692,1.6692,1.6692,1.6685,1.6686,1.6693,1.6693,1.6694,1.6694,0,1.6832,1.6829,1.6808,1.6798,1.6795,1.6781,1.6772,1.6759,1.6755,1.6737,1.6733,1.6726,1.6708,1.6703,1.6682,1.668,1.6653,1.6655,1.6657,1.6656,1.664,1.664,1.6591,1.6583,1.6628,1.6628,1.6627,0,1.6813,1.68,1.6788,1.678,1.6773,1.6759,1.675,1.6748,1.6738,1.6724,1.6712,1.6696,1.6682,1.6654,1.6646,1.6629,1.6629,1.6613,1.6626,1.6626,1.6626,1.6626,1.6624,1.661,1.6609,1.6609,1.6609,0,1.6778,1.6777,1.6765,1.6751,1.674,1.6729,1.6718,1.671,1.6706,1.6695,1.6677,1.6667,1.6645,1.6627,1.6611,1.6603,1.6604,1.6605,1.66,1.6598,1.6599,1.6596,1.6648,1.6605,1.6606,1.6606,1.6606,1.6606,1.6753,1.6741,1.6731,1.6716,1.6708,1.6698,1.6685,1.6679,1.6665,1.6648,1.6648,1.6628,1.6616,1.6593,1.6585,1.6568,1.6573,1.6566,1.6564,1.6562,1.656,1.6604,1.6565,1.6566,1.6566,1.6566,1.6566,0,1.6717,1.6711,1.6697,1.6682,1.667,1.6674,1.6662,1.6651,1.6634,1.6623,1.661,1.6588,1.6571,1.6562,1.6544,1.6532,1.6532,1.6528,1.6527,1.6525,1.6558,1.6563,1.6528,1.6528,1.6528,1.6528,1.6528,1.6528,1.6697,1.6676,1.6674,1.6648,1.6642,1.6623,1.6616,1.6605,1.6597,1.6573,1.6559,1.6554,1.6543,1.6524,1.6507,1.6505,1.6497,1.6492,1.6489,1.6519,1.6523,1.6527,1.6532,1.6491,1.6491,1.6458,1.6458,1.6457]}]]